Vorticity
11 11 10 11 12 11 9 13 8 12 12 9 8 9 37 5 41 -4 6 4 1 3 3 2 4 1 2 2 5 14 8 7
15 16 16 16 15 15 11 9 11 8 11 -5 6 4 11 9 16 12 18 3 10 12 -8 20 4 4 -7 6 17 18 1 7
10 15 15 17 16 18 15 9 6 13 13 3 0 13 4 7 36 19 9 21 7 8 22 -9 17 5 8 22 11 6 7 4
11 9 -1 -2 -0 12 11 11 9 11 12 0 5 11 6 6 -3 13 -15 78 4 8 56 16 2 15 4 4 5 7 3 5
9 7 -3 -3 3 2 1 14 8 9 11 7 6 4 -1 -5 6 7 -2 45 1 -30 -2 22 3 19 10 10 10 10 16 12
4 3 1 -0 -0 6 8 10 6 5 4 8 1 -1 5 38 9 7 -1 7 -4 11 9 -6 -9 31 8 10 2 3 1 3
5 4 -1 -2 -1 1 2 2 3 9 6 6 8 0 4 -28 8 2 -2 1 -3 -12 14 4 2 12 21 19 14 4 3 17
2 -1 -2 -8 4 7 5 9 8 7 4 5 5 5 7 3 -6 2 9 -2 -4 -7 2 -3 -0 -2 -6 15 28 12 9 4
4 7 7 4 8 8 13 8 13 12 5 4 5 6 7 9 7 7 5 5 7 7 11 10 14 19 24 -3 9 0 9 9
16 15 12 11 12 10 7 16 21 13 16 15 7 6 4 1 3 6 12 13 18 20 8 4 4 -0 3 -1 4 3 5 8
11 7 4 11 7 16 11 5 4 9 -4 7 10 12 12 13 15 12 4 6 4 8 14 18 17 16 15 18 15 20 15 17
6 13 6 18 14 5 13 11 15 4 2 13 11 8 8 10 11 9 5 9 7 9 10 11 13 16 16 16 16 12 17 14
12 3 18 3 9 8 12 6 13 17 2 -0 19 13 -0 5 -10 11 8 9 12 12 11 12 12 9 8 11 9 6 12 10
10 10 6 9 8 13 7 7 6 6 5 3 10 6 -6 11 1 23 19 18 15 14 15 13 13 16 15 11 13 13 11 21
-3 13 -1 11 16 13 5 0 1 4 9 10 5 10 17 27 21 12 11 15 16 12 12 15 12 9 9 8 7 4 6 5
10 4 6 25 5 4 8 8 4 10 14 15 15 11 10 13 7 10 13 18 18 18 17 13 11 6 7 1 3 3 5 12
7 15 16 6 -3 5 3 8 13 12 18 15 18 5 10 11 13 15 20 9 13 14 13 10 2 6 8 -1 4 8 6 -2
17 11 7 -3 1 5 4 11 18 13 13 13 8 11 15 15 17 12 2 18 12 11 10 9 8 5 6 7 1 6 7 -4
4 2 2 1 2 9 13 6 18 16 15 13 12 11 11 11 14 18 22 15 16 17 10 5 6 9 9 10 9 6 9 8
Height
5826 5824 5821 5820 5819 5818 5816 5815 5807 5805 5802 5800 5800 5800 5797 5780 5773 5788 5789 5788 5788 5789 5790 5791 5792 5793 5793 5794 5794 5793 5793 5792
5818 5817 5815 5814 5813 5811 5810 5807 5802 5799 5796 5792 5793 5794 5795 5794 5790 5784 5782 5781 5779 5778 5779 5781 5783 5783 5784 5785 5785 5784 5784 5784
5810 5809 5809 5808 5808 5806 5805 5802 5799 5795 5790 5787 5787 5787 5787 5785 5783 5780 5775 5773 5771 5772 5773 5774 5774 5773 5773 5774 5774 5775 5775 5775
5804 5803 5802 5802 5801 5800 5799 5798 5794 5790 5785 5782 5782 5780 5780 5776 5775 5773 5771 5768 5768 5771 5768 5767 5765 5762 5763 5764 5764 5764 5764 5764
5798 5797 5796 5795 5794 5793 5792 5791 5789 5786 5783 5780 5778 5776 5774 5771 5768 5765 5762 5762 5760 5758 5760 5758 5757 5756 5753 5754 5754 5755 5755 5755
5793 5792 5790 5788 5786 5785 5783 5783 5781 5779 5776 5773 5770 5767 5764 5761 5760 5757 5757 5757 5756 5749 5749 5750 5749 5747 5744 5744 5743 5743 5743 5743
5786 5784 5783 5782 5780 5778 5776 5773 5770 5767 5766 5763 5760 5757 5754 5751 5749 5749 5747 5744 5741 5739 5737 5738 5737 5736 5734 5732 5731 5731 5731 5731
5778 5777 5775 5773 5772 5769 5767 5765 5762 5758 5755 5752 5748 5746 5743 5740 5738 5737 5736 5733 5730 5728 5726 5727 5726 5725 5723 5721 5720 5717 5717 5717
5769 5767 5765 5764 5762 5759 5756 5753 5751 5748 5745 5742 5738 5735 5732 5729 5727 5724 5721 5719 5717 5715 5714 5712 5711 5709 5710 5708 5707 5706 5706 5706
5757 5755 5753 5751 5747 5745 5743 5741 5738 5736 5734 5731 5729 5725 5720 5716 5713 5709 5706 5704 5701 5700 5698 5696 5695 5694 5693 5693 5693 5692 5691 5691
5745 5743 5741 5738 5735 5734 5731 5729 5726 5724 5722 5719 5717 5714 5709 5705 5700 5696 5692 5689 5686 5684 5682 5680 5679 5678 5677 5677 5675 5674 5674 5673
5733 5730 5728 5726 5724 5722 5720 5717 5713 5711 5709 5707 5703 5699 5695 5691 5687 5683 5679 5676 5673 5670 5667 5665 5663 5662 5660 5659 5658 5657 5656 5656
5718 5717 5716 5715 5712 5710 5706 5703 5701 5698 5696 5693 5689 5686 5682 5679 5675 5670 5665 5662 5658 5655 5652 5650 5648 5646 5644 5642 5641 5641 5640 5639
5707 5705 5704 5702 5700 5696 5693 5690 5687 5683 5680 5676 5673 5670 5665 5663 5659 5655 5651 5648 5644 5640 5638 5635 5633 5632 5629 5628 5625 5623 5621 5619
5695 5693 5691 5689 5686 5683 5680 5678 5674 5671 5666 5660 5655 5652 5649 5644 5640 5638 5635 5633 5630 5627 5623 5621 5619 5618 5615 5613 5610 5608 5605 5603
5682 5682 5680 5676 5673 5671 5668 5664 5660 5654 5649 5646 5641 5637 5634 5631 5626 5623 5620 5618 5615 5613 5610 5608 5606 5604 5602 5598 5595 5592 5589 5587
5671 5668 5665 5661 5659 5657 5655 5650 5644 5640 5635 5631 5627 5622 5619 5616 5613 5610 5607 5605 5603 5600 5597 5595 5593 5590 5588 5586 5582 5579 5576 5573
5655 5652 5651 5649 5646 5643 5637 5633 5630 5627 5623 5618 5615 5610 5606 5603 5600 5597 5594 5592 5590 5587 5585 5582 5580 5578 5576 5572 5570 5567 5564 5560
5639 5638 5636 5634 5630 5626 5621 5617 5615 5612 5608 5605 5601 5597 5594 5590 5587 5585 5581 5579 5577 5575 5573 5570 5568 5565 5562 5559 5556 5553 5549 5545